Location: Neuvy Saint Sepulchre
(46.5953°N, 1.8122°E)
Time: 16:45:55
(UTC+02:00)

ISS - Pass Details

Date: 08 May 2026
Orbit: 414 x 424 km, 51.6° (Epoch: 21 May)

Event Time Altitude Azimuth Distance (km) Brightness Sun altitude
Exits shadow 04:07:27 18° 299° (WNW) 1,102 -1.7 -19.1°
Maximum altitude 04:09:50 80° 26° (NNE) 429 -3.7 -18.9°
Drops below altitude 10° 04:13:12 10° 113° (ESE) 1,497 -0.8 -18.6°
Sets 04:15:18 0° 115° (ESE) 2,360 0.2 -18.4°
